Showing default

BLUEBON, 62688

Orbit data source: Space-Track

BLUEBON, 62688 is a Polish payload satellite in SSO that was launched on Tue, 14 Jan 2025 UTC via an FALCON 9 launch vehicle from the Air Force Western Test Range (AFWTR). Payload-class satellites include a variety of spacecraft equipped with specific instruments for various scientific and technological missions. These include communications satellites like Starlink; space stations such as the ISS; scientific satellites like the Hubble; Earth observation satellites from companies like Planet Labs, Umbra, and HawkEye 360; GPS; miniature CubeSats for education and research; and military/defense satellites.

Loading next visibility...
Identifier
62688, 2025-009CH
Orbit
SSO
Country
Flag of PLPL / POL
Related business
Manufacturer
SatRevolution
Mission
Operational Commercial Imaging
Bus & Motor
CUBESAT 6UXL, Unknown motor
Mass
~15 kg wet, ~15 kg dry
Launch date (UTC)
2025-01-14 (1 year ago)
Launch vehicle
FALCON 9
Launch site
Air Force Western Test Range (AFWTR)
Object type
Payload
Rocket body
Debris
Shape & HBR
Box, 0.3 m
Radar Cross Section
0.045 m², Medium (>0.1 m² and < 1m²)

Expand to show TLE details & history
Last TLE update: 1 day ago

TLE from 1 day ago
0 BLUEBON
1 62688U 25009CH  26034.20657571  .00009615  00000-0  35119-3 0  9997
2 62688  97.4083 117.8886 0002909  96.3342 263.8229 15.28314666 58499
Epoch: 2026-02-03T04:57Z
TLE epoch observation values (Epoch: 2026-02-03T04:57:28.141Z)
Latitude
-0.00001°
Longitude
-89.86949°
Altitude
484.167 km
Speed
7.623 km/s
True Right ascension
07h 51m 33s
True Declination
0° 00' 00"
Sunlit
Object was in full shadow at epoch
Visualization orbit readout
Latitude
Unknown
Longitude
Unknown
Altitude
Unknown
Speed
Unknown
Apparent Right ascension
Unknown
Apparent Declination
Unknown
Sunlit
N/A
Visualization observer readout
Local Sidereal Time
07:10:36
Azimuth
Unknown
Elevation
Unknown
Doppler factor
Unknown
Orbital elements
Apogee altitude
479.799 km
Perigee altitude
475.811 km
Semi-major axis
6,855.942 km
Eccentricity
0.00029
Inclination
97.4083°
RAAN
117.8886°
Arg. of periapsis
96.3342°
True anomaly
263.78976°
Mean anomaly
263.8229°
Eccentric anomaly
263.80633°
Mean motion
3.82334 °/min
Orbital period
94.16 mins
BSTAR
0.00035119
Loading maneuver chart data...
Computing Atmospheric mass density...
Loading historical data...
Loading historical data...
Loading historical data...
Loading historical data...
Loading historical data...
Loading historical data...
Loading historical data...

Documentation

Showing up to 5 results
|